KL1V-13 Weather Reports


Display with metric or nautical units.
time (UTC)temp
F
wind
direction
speed
MPH
gust
MPH
rain 1hr
in
rain 24hr
in
rain mn
in
humidity
%
barometer
mb
20260509170714 37 45 0.0 2.0 0.02 0.24 0.20 92 993.9
20260509165714 37 327 1.0 2.0 0.02 0.24 0.20 92 993.9
20260509164714 36 360 0.0 2.0 0.01 0.23 0.19 92 994.2
20260509163714 36 0.0 0.0 0.02 0.23 0.19 92 994.2
20260509162715 36 315 2.0 3.0 0.02 0.22 0.18 92 994.2
20260509161714 35 315 0.0 1.0 0.02 0.22 0.18 92 994.2
20260509160736 34 0.0 0.0 0.02 0.22 0.18 92 994.2
20260509155735 34 0.0 0.0 0.03 0.22 0.18 92 994.2
20260509154714 33 0.0 0.0 0.04 0.22 0.18 92 994.2
20260509153715 33 0.0 0.0 0.03 0.21 0.17 92 994.2
20260509152714 33 0.0 0.0 0.02 0.20 0.16 92 994.3
20260509151735 33 0.0 0.0 0.02 0.20 0.16 92 994.2
20260509150735 33 0.0 0.0 0.03 0.20 0.16 92 994.2
20260509145714 33 0.0 0.0 0.03 0.19 0.15 92 994.2
20260509144714 33 0.0 0.0 0.02 0.18 0.14 92 994.6
20260509143714 32 0.0 0.0 0.02 0.18 0.14 92 994.6
20260509142715 32 0.0 0.0 0.02 0.18 0.14 92 994.6
20260509141716 33 0.0 0.0 0.02 0.18 0.14 92 994.6
20260509140714 33 0.0 0.0 0.01 0.17 0.13 92 994.6
20260509135714 33 0.0 0.0 0.00 0.16 0.12 91 994.9
20260509134714 33 0.0 0.0 0.01 0.16 0.12 91 994.9
20260509133714 33 0.0 0.0 0.02 0.16 0.12 91 994.9
20260509132715 33 0.0 0.0 0.02 0.16 0.12 91 994.9
20260509131714 33 0.0 0.0 0.02 0.16 0.12 91 995.3
20260509130734 33 0.0 0.0 0.02 0.16 0.12 91 995.3
20260509125714 33 0.0 0.0 0.02 0.16 0.12 91 995.3
20260509124734 33 0.0 0.0 0.02 0.15 0.11 91 995.6
20260509123715 33 0.0 0.0 0.02 0.14 0.10 91 995.6
20260509122715 33 0.0 0.0 0.02 0.14 0.10 91 995.7
20260509121715 34 0.0 0.0 0.03 0.14 0.10 91 995.9
20260509120735 34 0.0 0.0 0.04 0.14 0.10 91 995.9
20260509115714 34 0.0 0.0 0.04 0.14 0.10 91 996.3
20260509114714 34 0.0 0.0 0.03 0.13 0.09 91 996.6
20260509113735 34 0.0 0.0 0.02 0.12 0.08 91 996.6
20260509112714 35 0.0 0.0 0.03 0.12 0.08 91 996.6
20260509111714 35 0.0 0.0 0.03 0.11 0.07 91 996.6
20260509110714 35 0.0 0.0 0.02 0.11 0.06 91 997.0
20260509105714 35 0.0 0.0 0.02 0.11 0.06 91 997.0
20260509104715 35 0.0 0.0 0.03 0.11 0.06 91 997.3
20260509103714 35 0.0 0.0 0.04 0.11 0.06 91 997.6
20260509102715 35 0.0 0.0 0.03 0.11 0.05 91 997.6
20260509101715 35 0.0 0.0 0.02 0.10 0.04 91 997.7
20260509100714 35 0.0 0.0 0.02 0.10 0.04 91 998.0
20260509095715 36 0.0 0.0 0.03 0.10 0.04 91 998.0
20260509094714 36 0.0 0.0 0.02 0.09 0.03 91 998.3
20260509093715 36 0.0 0.0 0.02 0.08 0.02 91 998.6
20260509092714 36 0.0 0.0 0.02 0.08 0.02 91 998.4
20260509091715 36 0.0 0.0 0.02 0.08 0.02 90 998.7
20260509090715 36 0.0 0.0 0.02 0.08 0.02 90 999.0
20260509085714 36 0.0 0.0 0.01 0.07 0.01 90 999.0
20260509084714 36 0.0 0.0 0.01 0.07 0.01 90 999.3
20260509083715 36 0.0 0.0 0.01 0.06 0.00 90 999.7
20260509082715 36 0.0 0.0 0.01 0.06 0.00 90 999.7
20260509081734 36 0.0 0.0 0.01 0.06 0.00 90 999.7
20260509080716 36 0.0 0.0 0.02 0.06 0.00 89 1000.0
20260509075714 36 0.0 0.0 0.02 0.06 0.06 89 1000.0
20260509074714 36 0.0 0.0 0.02 0.06 0.06 89 1000.4
20260509073716 36 0.0 0.0 0.01 0.05 0.05 89 1000.4
20260509072715 36 0.0 0.0 0.01 0.05 0.05 89 1000.7
20260509071714 37 0.0 0.0 0.01 0.05 0.05 88 1000.7
20260509070714 37 0.0 0.0 0.00 0.04 0.04 88 1000.7
20260509065735 37 0.0 0.0 0.00 0.04 0.04 88 1001.0
20260509064755 37 0.0 0.0 0.00 0.04 0.04 88 1001.0
20260509063715 37 0.0 0.0 0.01 0.04 0.04 88 1001.4
20260509062714 37 0.0 0.0 0.01 0.04 0.04 88 1001.4
20260509061716 38 315 1.0 3.0 0.01 0.04 0.04 88 1001.4
20260509060714 38 0.0 0.0 0.01 0.04 0.04 88 1001.4
20260509055714 38 0.0 0.0 0.01 0.04 0.04 88 1001.4
20260509054715 38 0.0 0.0 0.02 0.04 0.04 88 1001.7
20260509053714 39 0.0 0.0 0.01 0.03 0.03 87 1001.7
20260509052715 39 0.0 0.0 0.01 0.03 0.03 87 1002.1
20260509051714 39 0.0 0.0 0.01 0.03 0.03 87 1002.1
20260509050714 39 0.0 0.0 0.01 0.03 0.03 86 1002.1
20260509045734 40 0.0 0.0 0.01 0.03 0.03 86 1002.1
20260509044714 40 0.0 0.0 0.00 0.02 0.02 85 1002.1
20260509043715 40 0.0 0.0 0.00 0.02 0.02 84 1002.4
20260509042734 40 0.0 0.0 0.00 0.02 0.02 83 1002.7
20260509041714 40 0.0 0.0 0.00 0.02 0.02 82 1002.7
20260509040714 41 0.0 0.0 0.00 0.02 0.02 80 1003.1
20260509035715 41 337 0.0 1.0 0.00 0.02 0.02 78 1003.1
20260509034715 42 351 1.0 2.0 0.00 0.02 0.02 75 1003.1
20260509033714 43 337 0.0 2.0 0.00 0.02 0.02 74 1003.1
20260509032734 43 0.0 0.0 0.00 0.02 0.02 73 1003.4
20260509031714 43 315 1.0 3.0 0.00 0.02 0.02 72 1003.4
20260509030714 43 341 4.0 5.0 0.00 0.02 0.02 72 1003.4
20260509025714 43 15 2.0 4.0 0.00 0.02 0.02 73 1003.4
20260509024715 44 322 3.0 6.0 0.00 0.02 0.02 72 1003.8
20260509023735 44 22 0.0 2.0 0.00 0.02 0.02 71 1003.8
20260509022714 45 323 4.0 8.0 0.00 0.02 0.02 69 1003.8
20260509021756 45 127 1.0 3.0 0.00 0.02 0.02 66 1004.1
20260509020714 45 90 0.0 2.0 0.00 0.02 0.02 65 1004.1
20260509015714 46 109 1.0 3.0 0.00 0.02 0.02 64 1004.1
20260509014714 47 122 2.0 4.0 0.00 0.02 0.02 63 1004.1
20260509013714 46 0.0 0.0 0.00 0.02 0.02 62 1004.1
20260509012756 47 204 1.0 4.0 0.00 0.02 0.02 62 1004.4
20260509011715 47 202 0.0 1.0 0.00 0.02 0.02 61 1004.4
20260509010714 48 225 0.0 2.0 0.00 0.02 0.02 60 1004.8
20260509005715 48 0.0 0.0 0.00 0.02 0.02 60 1004.8
20260509004715 48 206 1.0 2.0 0.00 0.02 0.02 60 1004.8
20260509003714 48 182 1.0 4.0 0.00 0.02 0.02 59 1004.8
20260509002714 49 225 1.0 3.0 0.00 0.02 0.02 59 1005.1
20260509001736 49 218 2.0 4.0 0.00 0.02 0.02 59 1005.5
20260509000714 49 95 2.0 4.0 0.00 0.02 0.02 59 1005.5
20260508235755 49 128 5.0 10.0 0.00 0.02 0.02 59 1005.5
20260508234714 48 94 2.0 3.0 0.00 0.02 0.02 60 1005.6
20260508233714 48 75 2.0 4.0 0.00 0.02 0.02 59 1005.8
20260508232715 49 144 1.0 3.0 0.00 0.02 0.02 59 1005.8
20260508231714 48 180 1.0 4.0 0.00 0.02 0.02 60 1006.1
20260508230716 48 351 1.0 2.0 0.00 0.02 0.02 60 1006.1
20260508225714 48 180 1.0 6.0 0.00 0.02 0.02 59 1006.1
20260508224714 48 187 1.0 3.0 0.00 0.02 0.02 60 1006.5
20260508223714 47 67 0.0 1.0 0.00 0.02 0.02 60 1006.5
20260508222714 47 218 2.0 3.0 0.00 0.02 0.02 61 1006.5
20260508221714 47 107 5.0 7.0 0.00 0.02 0.02 61 1006.5
20260508220714 47 133 3.0 5.0 0.00 0.02 0.02 61 1006.8
20260508215734 47 151 3.0 5.0 0.00 0.02 0.02 62 1006.8
20260508214735 46 339 2.0 4.0 0.00 0.02 0.02 63 1006.8
20260508213714 46 112 1.0 2.0 0.00 0.02 0.02 64 1007.1
20260508212714 46 179 1.0 4.0 0.00 0.02 0.02 64 1007.2
20260508211714 46 105 2.0 4.0 0.00 0.02 0.02 65 1007.2
20260508210714 46 112 2.0 3.0 0.00 0.02 0.02 65 1007.5
20260508205735 46 124 5.0 6.0 0.00 0.02 0.02 65 1007.5
20260508204714 46 79 1.0 3.0 0.00 0.02 0.02 66 1007.8
20260508203714 45 112 2.0 3.0 0.00 0.02 0.02 65 1007.8
20260508202735 45 112 1.0 4.0 0.00 0.02 0.02 67 1007.8
20260508201714 44 112 0.0 1.0 0.00 0.02 0.02 68 1007.9
20260508200714 44 112 2.0 3.0 0.00 0.02 0.02 68 1008.2
20260508195714 44 112 1.0 3.0 0.00 0.02 0.02 69 1008.2
20260508194715 44 112 1.0 3.0 0.00 0.02 0.02 69 1008.5
20260508193714 44 112 0.0 1.0 0.00 0.02 0.02 68 1008.5
20260508192714 44 175 0.0 2.0 0.00 0.02 0.02 68 1008.5
20260508191735 45 112 0.0 2.0 0.00 0.02 0.02 68 1008.5
20260508190734 45 0.0 0.0 0.00 0.02 0.02 68 1008.9
20260508185735 46 212 1.0 3.0 0.00 0.02 0.02 69 1008.9
20260508184714 45 143 2.0 3.0 0.00 0.02 0.02 69 1009.2
20260508183714 45 117 3.0 4.0 0.00 0.02 0.02 68 1009.2
20260508182715 45 99 2.0 3.0 0.00 0.02 0.02 69 1009.2
20260508181714 44 22 0.0 1.0 0.00 0.02 0.02 73 1009.2
20260508180714 43 90 2.0 3.0 0.00 0.02 0.02 75 1009.5
20260508175735 43 112 1.0 4.0 0.00 0.02 0.02 76 1009.5
20260508174714 43 90 2.0 3.0 0.00 0.02 0.02 77 1009.9
20260508173714 43 67 0.0 1.0 0.00 0.02 0.02 81 1009.9
20260508172715 42 155 2.0 3.0 0.00 0.02 0.02 83 1009.9
20260508171716 42 112 2.0 3.0 0.00 0.02 0.02 84 1010.2